Frenchville, ME

8:20 PM EDT on June 26, 2017 (GMT -0400)
Northern Aroostook Regional

Weather History for KFVE - May, 2014

Change the Weather History Date:

Friday, May 9, 2014

  Actual Average Record
Temperature  
Mean Temperature 45 °F 48 °F  
Max Temperature 60 °F 58 °F 77 °F (2001)
Min Temperature 29 °F 39 °F 28 °F (2002)
Degree Days  
Heating Degree Days 20    
Month to date heating degree days 184  
Since 1 July heating degree days 9606  
Cooling Degree Days 0    
Month to date cooling degree days 0  
Year to date cooling degree days 0  
Moisture  
Dew Point 26 °F    
Average Humidity 48    
Maximum Humidity 86    
Minimum Humidity 23    
Precipitation  
Precipitation 0.04 in 0.09 in 0.38 in (2017)
Month to date precipitation 1.01 0.83  
Year to date precipitation 7.61 7.69  
Sea Level Pressure  
Sea Level Pressure 30.15 in    
Wind  
Wind Speed 8 mph (South)    
Max Wind Speed 20 mph    
Max Gust Speed 25 mph    
Visibility 10 miles    
Events Rain    
T = Trace of Precipitation, MM = Missing Value Source: NWS Daily Summary

Daily Weather History Graph

Daily Weather History Graph

Search for Another Location

Airport or City:

Trip Planner

Search our weather history database for the weather conditions in past years. The results will help you decide how hot, cold, wet, or windy it might be!

Date:

Astronomy

May. 09, 2014 Rise Set
Actual Time 5:04 AM EDT 7:55 PM EDT
Civil Twilight 4:29 AM EDT 8:30 PM EDT
Nautical Twilight 3:44 AM EDT 9:16 PM EDT
Astronomical Twilight 2:51 AM EDT 10:10 PM EDT
Moon 2:28 PM EDT (5/9) 2:27 AM EDT (5/9)
Length of Visible Light 16h 01m
Length of Day
14h 50m
Waxing Gibbous, 73% of the Moon is Illuminated
May 9
Waxing Gibbous
May 14
Full
May 21
Last Quarter
May 28
New
Jun 5
First Quarter

Hourly Weather History & Observations

Time (EDT) Temp. Windchill Dew Point Humidity Pressure Visibility Wind Dir Wind Speed Gust Speed Precip Events Conditions
12:53 AM 37.0 °F 33.3 °F 19.9 °F 50% 30.25 in 10.0 mi NNW 4.6 mph - N/A   Clear
1:53 AM 36.0 °F 32.1 °F 19.9 °F 52% 30.25 in 10.0 mi NW 4.6 mph - N/A   Clear
2:53 AM 34.0 °F - 21.0 °F 59% 30.26 in 10.0 mi Calm Calm - N/A   Clear
3:53 AM 33.1 °F 30.0 °F 21.0 °F 61% 30.26 in 10.0 mi NW 3.5 mph - N/A   Clear
4:53 AM 33.8 °F 30.8 °F 21.2 °F 60% 30.24 in 10.0 mi NNW 3.5 mph - N/A   Clear
5:53 AM 32.0 °F 28.7 °F 23.0 °F 69% 30.27 in 10.0 mi NNW 3.5 mph - N/A   Clear
6:53 AM 37.0 °F - 25.0 °F 62% 30.28 in 10.0 mi Calm Calm - N/A   Clear
7:53 AM 39.2 °F 37.0 °F 26.6 °F 61% 30.25 in 10.0 mi SE 3.5 mph - N/A   Clear
8:53 AM 45.0 °F 42.6 °F 27.0 °F 49% 30.26 in 10.0 mi SSE 4.6 mph - N/A   Clear
9:53 AM 48.0 °F - 27.0 °F 44% 30.26 in 10.0 mi SSE 5.8 mph - N/A   Clear
10:53 AM 52.0 °F - 25.0 °F 35% 30.25 in 10.0 mi SW 9.2 mph - N/A   Clear
11:53 AM 52.0 °F - 26.1 °F 37% 30.22 in 10.0 mi SE 13.8 mph - N/A   Clear
12:53 PM 55.0 °F - 25.0 °F 31% 30.19 in 10.0 mi SE 10.4 mph - N/A   Clear
1:53 PM 57.0 °F - 25.0 °F 29% 30.16 in 10.0 mi SE 10.4 mph - N/A   Clear
2:53 PM 59.0 °F - 24.1 °F 26% 30.13 in 10.0 mi South 11.5 mph - N/A   Clear
3:53 PM 60.1 °F - 21.9 °F 23% 30.10 in 10.0 mi South 11.5 mph - N/A   Clear
4:53 PM 59.0 °F - 24.1 °F 26% 30.08 in 10.0 mi South 12.7 mph - N/A   Clear
5:53 PM 57.9 °F - 24.1 °F 27% 30.06 in 10.0 mi South 10.4 mph - N/A   Clear
6:53 PM 57.0 °F - 25.0 °F 29% 30.04 in 10.0 mi SSE 8.1 mph - N/A   Clear
7:53 PM 55.9 °F - 26.1 °F 32% 30.03 in 10.0 mi SSE 9.2 mph - N/A   Overcast
8:53 PM 54.0 °F - 27.0 °F 35% 30.05 in 10.0 mi South 8.1 mph - N/A   Overcast
9:53 PM 50.0 °F - 36.0 °F 59% 30.03 in 10.0 mi South 4.6 mph - 0.01 in Rain Light Rain
10:53 PM 48.2 °F - 39.2 °F 71% 29.99 in 10.0 mi South 10.4 mph - N/A Rain Light Rain
11:32 PM 46.0 °F 39.3 °F 39.9 °F 79% 29.98 in 10.0 mi SSE 16.1 mph - 0.00 in Rain Light Rain
11:53 PM 45.0 °F 37.6 °F 41.0 °F 86% 29.98 in 9.0 mi SSE 17.3 mph - 0.01 in Rain Light Rain